Tampa Macdill AFB, FL

3:08 AM EST on December 09, 2019 (GMT -0500)
MacDill Air Force Base

Weather History for KMCF - November, 2019

Change the Weather History Date:

Saturday, November 16, 2019

  Actual Average Record
Temperature  
Mean Temperature 58 °F -  
Max Temperature 64 °F 76 °F 84 °F (1998)
Min Temperature 51 °F 58 °F 43 °F (2007)
Degree Days  
Heating Degree Days 7    
Growing Degree Days 8 (Base 50)    
Moisture  
Dew Point 54 °F    
Average Humidity 77    
Maximum Humidity 88    
Minimum Humidity 70    
Precipitation  
Precipitation 0.00 in - - ()
Sea Level Pressure  
Sea Level Pressure 29.93 in    
Wind  
Wind Speed 10 mph (North)    
Max Wind Speed 15 mph    
Max Gust Speed 23 mph    
Visibility 10 miles    
Events Rain    
Averages and records for this station are not official NWS values.
T = Trace of Precipitation, MM = Missing Value Source: NWS Daily Summary

Daily Weather History Graph

Daily Weather History Graph

Search for Another Location

Airport or City:

Astronomy

Nov. 16, 2019 Rise Set
Actual Time 6:51 AM EST 5:37 PM EST
Civil Twilight 6:27 AM EST 6:02 PM EST
Nautical Twilight 5:58 AM EST 6:30 PM EST
Astronomical Twilight 5:30 AM EST 6:58 PM EST
Moon 9:17 PM EST (11/16) 10:35 AM EST (11/16)
Length of Visible Light 11h 34m
Length of Day
10h 45m
Waning Gibbous, 82% of the Moon is Illuminated
Nov 16
Waning Gibbous
Nov 19
Last Quarter
Nov 26
New
Dec 4
First Quarter
Dec 12
Full

Hourly Weather History & Observations

Time (EST) Temp. Dew Point Humidity Pressure Visibility Wind Dir Wind Speed Gust Speed Precip Events Conditions
12:51 AM 64.4 °F 55.4 °F 73% 29.94 in 10.0 mi NNW 10.4 mph 18.4 mph N/A   Overcast
12:56 AM 63.9 °F 54.7 °F 72% 29.94 in 10.0 mi NNW 10.4 mph 17.3 mph N/A   Overcast
1:56 AM 63.9 °F 54.0 °F 70% 29.92 in 10.0 mi NNW 9.2 mph 18.4 mph N/A   Overcast
2:56 AM 63.5 °F 54.0 °F 71% 29.91 in 10.0 mi NNW 9.2 mph 18.4 mph N/A   Overcast
3:56 AM 63.3 °F 54.5 °F 73% 29.90 in 10.0 mi NW 8.1 mph 17.3 mph N/A   Overcast
4:56 AM 63.3 °F 54.5 °F 73% 29.90 in 10.0 mi NNW 12.7 mph 20.7 mph N/A   Overcast
5:56 AM 63.5 °F 54.3 °F 72% 29.91 in 10.0 mi NNW 11.5 mph 18.4 mph N/A   Overcast
6:26 AM 64.4 °F 55.4 °F 73% 29.91 in 10.0 mi NNW 15.0 mph 23.0 mph N/A   Overcast
6:56 AM 63.1 °F 54.3 °F 73% 29.92 in 10.0 mi NNW 12.7 mph 20.7 mph N/A   Overcast
7:06 AM 62.6 °F 55.4 °F 77% 29.92 in 10.0 mi NNW 11.5 mph 19.6 mph N/A   Overcast
7:11 AM 62.6 °F 55.4 °F 77% 29.92 in 10.0 mi NNW 9.2 mph - N/A   Overcast
7:26 AM 62.6 °F 55.4 °F 77% 29.92 in 10.0 mi NNW 8.1 mph - N/A   Overcast
7:30 AM 62.6 °F 55.4 °F 77% 29.92 in 10.0 mi NNW 8.1 mph - N/A   Light Drizzle
7:39 AM 62.6 °F 55.4 °F 77% 29.92 in 10.0 mi NNW 12.7 mph - N/A   Overcast
7:42 AM 62.6 °F 55.4 °F 77% 29.92 in 10.0 mi NNW 10.4 mph 19.6 mph N/A Rain Light Rain
7:46 AM 62.6 °F 55.4 °F 77% 29.92 in 10.0 mi NNW 12.7 mph 19.6 mph N/A Rain Light Rain
7:56 AM 61.9 °F 54.9 °F 78% 29.93 in 10.0 mi NNW 11.5 mph 19.6 mph 0.00 in Rain Light Rain
7:58 AM 62.6 °F 55.4 °F 77% 29.93 in 10.0 mi NNW 12.7 mph 20.7 mph N/A   Overcast
8:13 AM 62.6 °F 53.6 °F 72% 29.93 in 10.0 mi NNW 9.2 mph 17.3 mph N/A   Overcast
8:23 AM 62.6 °F 53.6 °F 72% 29.93 in 10.0 mi North 10.4 mph 17.3 mph N/A   Overcast
8:26 AM 62.6 °F 55.4 °F 77% 29.93 in 10.0 mi North 11.5 mph 19.6 mph N/A Rain Light Rain
8:31 AM 62.6 °F 55.4 °F 77% 29.93 in 10.0 mi North 8.1 mph 19.6 mph N/A Rain Light Rain
8:35 AM 62.6 °F 55.4 °F 77% 29.93 in 10.0 mi North 8.1 mph 19.6 mph N/A   Overcast
8:40 AM 62.6 °F 55.4 °F 77% 29.93 in 10.0 mi NNW 8.1 mph 16.1 mph N/A   Overcast
8:45 AM 62.6 °F 55.4 °F 77% 29.93 in 10.0 mi NNW 11.5 mph 18.4 mph N/A   Overcast
8:49 AM 62.6 °F 55.4 °F 77% 29.93 in 10.0 mi North 9.2 mph 18.4 mph N/A   Light Drizzle
8:53 AM 62.6 °F 55.4 °F 77% 29.94 in 10.0 mi North 11.5 mph 18.4 mph N/A Rain Light Rain
8:56 AM 61.7 °F 54.7 °F 78% 29.94 in 10.0 mi NNW 9.2 mph 17.3 mph 0.00 in Rain Light Rain
9:06 AM 60.8 °F 55.4 °F 82% 29.94 in 10.0 mi North 6.9 mph 18.4 mph N/A Rain Light Rain
9:11 AM 62.6 °F 55.4 °F 77% 29.94 in 10.0 mi NNW 11.5 mph 17.3 mph N/A   Light Drizzle
9:16 AM 62.6 °F 55.4 °F 77% 29.94 in 10.0 mi North 10.4 mph 17.3 mph N/A   Light Drizzle
9:18 AM 62.6 °F 53.6 °F 72% 29.94 in 10.0 mi NNW 10.4 mph 17.3 mph N/A   Overcast
9:25 AM 62.6 °F 53.6 °F 72% 29.94 in 10.0 mi NNW 11.5 mph 17.3 mph N/A   Light Drizzle
9:30 AM 62.6 °F 53.6 °F 72% 29.94 in 10.0 mi North 11.5 mph 17.3 mph N/A Rain Light Rain
9:47 AM 60.8 °F 53.6 °F 77% 29.95 in 10.0 mi North 12.7 mph 18.4 mph N/A   Overcast
9:56 AM 61.7 °F 54.3 °F 77% 29.95 in 10.0 mi NNW 10.4 mph 18.4 mph 0.00 in   Overcast
10:08 AM 62.6 °F 55.4 °F 77% 29.95 in 10.0 mi NNW 11.5 mph 19.6 mph N/A Rain Light Rain
10:14 AM 62.6 °F 53.6 °F 72% 29.95 in 10.0 mi North 11.5 mph 19.6 mph N/A Rain Light Rain
10:23 AM 60.8 °F 55.4 °F 82% 29.95 in 10.0 mi North 11.5 mph 19.6 mph N/A   Overcast
10:56 AM 62.2 °F 53.4 °F 73% 29.94 in 10.0 mi NNW 12.7 mph 19.6 mph 0.00 in   Overcast
11:01 AM 62.6 °F 53.6 °F 72% 29.94 in 10.0 mi NNW 10.4 mph 17.3 mph N/A   Overcast
11:16 AM 62.6 °F 53.6 °F 72% 29.93 in 10.0 mi North 10.4 mph 21.9 mph N/A   Overcast
11:21 AM 62.6 °F 53.6 °F 72% 29.93 in 10.0 mi North 11.5 mph 18.4 mph N/A   Overcast
11:56 AM 61.9 °F 53.1 °F 73% 29.92 in 10.0 mi NNW 12.7 mph 23.0 mph N/A   Overcast
12:56 PM 61.0 °F 53.4 °F 76% 29.91 in 10.0 mi North 12.7 mph 20.7 mph N/A   Overcast
1:41 PM 60.8 °F 53.6 °F 77% 29.90 in 10.0 mi North 12.7 mph 20.7 mph N/A   Overcast
1:56 PM 60.3 °F 53.4 °F 78% 29.90 in 10.0 mi North 10.4 mph 18.4 mph N/A   Overcast
2:56 PM 59.0 °F 52.9 °F 80% 29.89 in 10.0 mi North 8.1 mph 18.4 mph N/A   Overcast
3:56 PM 57.7 °F 52.3 °F 82% 29.90 in 10.0 mi North 10.4 mph 18.4 mph N/A   Overcast
4:00 PM 57.2 °F 51.8 °F 82% 29.90 in 10.0 mi North 11.5 mph 17.3 mph N/A   Overcast
4:15 PM 57.2 °F 51.8 °F 82% 29.90 in 10.0 mi North 12.7 mph 19.6 mph N/A   Overcast
4:56 PM 57.2 °F 51.1 °F 80% 29.89 in 10.0 mi North 9.2 mph - N/A   Overcast
5:56 PM 55.8 °F 49.6 °F 80% 29.90 in 10.0 mi NNE 8.1 mph - N/A   Overcast
6:56 PM 55.4 °F 50.0 °F 82% 29.92 in 10.0 mi North 11.5 mph 19.6 mph N/A   Overcast
7:56 PM 54.7 °F 49.3 °F 82% 29.95 in 10.0 mi NNE 9.2 mph 17.3 mph N/A   Overcast
8:56 PM 53.8 °F 48.0 °F 81% 29.96 in 10.0 mi NNE 11.5 mph 19.6 mph N/A   Overcast
9:56 PM 53.1 °F 47.7 °F 82% 29.98 in 10.0 mi NE 6.9 mph - N/A   Overcast
10:45 PM 53.6 °F 48.2 °F 82% 29.97 in 10.0 mi NNE 8.1 mph - N/A   Overcast
10:56 PM 52.3 °F 46.9 °F 82% 29.97 in 10.0 mi NE 8.1 mph - N/A   Overcast
11:36 PM 51.8 °F 48.2 °F 88% 29.97 in 10.0 mi NNE 4.6 mph - N/A   Overcast